South Bend, IN

12:48 AM EDT on September 01, 2016 (GMT -0400)
South Bend Regional

Weather History for KSBN - November, 2013

Change the Weather History Date:

Friday, November 8, 2013

  Actual Average Record
Temperature  
Mean Temperature 38 °F 44 °F  
Max Temperature 47 °F 52 °F 72 °F (1931)
Min Temperature 28 °F 36 °F 15 °F (1991)
Degree Days  
Heating Degree Days 27 21  
Month to date heating degree days 155 156  
Since 1 July heating degree days 654 697  
Cooling Degree Days 0 0  
Month to date cooling degree days 0 0  
Year to date cooling degree days 828 773  
Moisture  
Dew Point 29 °F    
Average Humidity 71    
Maximum Humidity 92    
Minimum Humidity 49    
Precipitation  
Precipitation T in 0.10 in 0.71 in (1966)
Month to date precipitation 0.83 0.85  
Year to date precipitation 36.22 32.97  
Snow  
Snow 0.00 in 0.10 in 2.20 in (1955)
Month to date snowfall 0.6  
Since 1 July snowfall 1.0  
Since 1 September snowfall 1.0  
Snow Depth -    
Sea Level Pressure  
Sea Level Pressure 30.24 in    
Wind  
Wind Speed 7 mph (SW)    
Max Wind Speed 14 mph    
Max Gust Speed 20 mph    
Visibility 9 miles    
Events Rain    
T = Trace of Precipitation, MM = Missing Value Source: NWS Daily Summary

Daily Weather History Graph

Daily Weather History Graph

Search for Another Location

Airport or City:

Trip Planner

Search our weather history database for the weather conditions in past years. The results will help you decide how hot, cold, wet, or windy it might be!

Date:

Astronomy

Nov. 08, 2013 Rise Set
Actual Time 7:26 AM EST 5:31 PM EST
Civil Twilight 6:56 AM EST 6:00 PM EST
Nautical Twilight 6:23 AM EST 6:33 PM EST
Astronomical Twilight 5:50 AM EST 7:06 PM EST
Moon 12:21 PM EST (11/8) 10:51 PM EST (11/8)
Length of Visible Light 11h 03m
Length of Day
10h 05m
Waxing Crescent, 33% of the Moon is Illuminated
Nov 8
Waxing Crescent
Nov 10
First Quarter
Nov 17
Full
Nov 25
Last Quarter
Dec 2
New

Hourly Weather History & Observations

Time (EST) Temp. Windchill Dew Point Humidity Pressure Visibility Wind Dir Wind Speed Gust Speed Precip Events Conditions
12:54 AM 35.1 °F 29.3 °F 30.9 °F 85% 30.21 in 6.0 mi SW 6.9 mph - 0.00 in Rain Light Rain
1:31 AM 35.6 °F 28.6 °F 30.2 °F 81% 30.20 in 10.0 mi WSW 9.2 mph - 0.00 in   Overcast
1:54 AM 35.1 °F 28.6 °F 30.9 °F 85% 30.22 in 10.0 mi WSW 8.1 mph - 0.00 in   Overcast
2:14 AM 33.8 °F 26.4 °F 30.2 °F 87% 30.20 in 10.0 mi WSW 9.2 mph - N/A   Overcast
2:54 AM 35.1 °F 27.9 °F 30.9 °F 85% 30.23 in 10.0 mi WSW 9.2 mph - N/A   Mostly Cloudy
3:54 AM 33.1 °F 26.9 °F 30.0 °F 89% 30.23 in 8.0 mi WSW 6.9 mph - N/A   Partly Cloudy
4:54 AM 30.9 °F 25.2 °F 28.0 °F 89% 30.25 in 6.0 mi SSW 5.8 mph - N/A   Clear
5:54 AM 30.0 °F 25.2 °F 28.0 °F 92% 30.27 in 6.0 mi SSW 4.6 mph - N/A   Partly Cloudy
6:54 AM 28.9 °F 21.9 °F 26.1 °F 89% 30.30 in 8.0 mi WSW 6.9 mph - N/A   Clear
7:54 AM 30.0 °F 25.2 °F 27.0 °F 88% 30.32 in 8.0 mi SW 4.6 mph - N/A   Partly Cloudy
8:54 AM 35.1 °F 31.0 °F 30.0 °F 82% 30.34 in 10.0 mi WSW 4.6 mph - N/A   Clear
9:54 AM 41.0 °F 36.4 °F 28.9 °F 62% 30.34 in 10.0 mi WNW 6.9 mph - N/A   Clear
10:54 AM 42.1 °F 40.2 °F 27.0 °F 55% 30.35 in 10.0 mi WSW 3.5 mph - N/A   Clear
11:54 AM 44.1 °F 39.5 °F 27.0 °F 51% 30.33 in 10.0 mi West 8.1 mph - N/A   Clear
12:54 PM 44.1 °F 40.8 °F 30.0 °F 58% 30.30 in 10.0 mi South 5.8 mph - N/A   Clear
1:54 PM 46.0 °F 43.1 °F 28.9 °F 51% 30.28 in 10.0 mi West 5.8 mph - N/A   Clear
2:54 PM 46.0 °F 41.9 °F 28.9 °F 51% 30.27 in 10.0 mi SSW 8.1 mph - N/A   Clear
3:54 PM 46.0 °F 42.5 °F 28.9 °F 51% 30.25 in 10.0 mi SW 6.9 mph - N/A   Clear
4:54 PM 45.0 °F 41.8 °F 28.0 °F 52% 30.24 in 10.0 mi SSW 5.8 mph - N/A   Clear
5:54 PM 44.1 °F 40.8 °F 28.9 °F 55% 30.23 in 10.0 mi SSW 5.8 mph - N/A   Clear
6:54 PM 44.1 °F 39.5 °F 28.9 °F 55% 30.21 in 10.0 mi SSE 8.1 mph - N/A   Mostly Cloudy
7:54 PM 44.1 °F 38.6 °F 30.0 °F 58% 30.19 in 10.0 mi SSE 10.4 mph - N/A   Clear
8:54 PM 43.0 °F 37.2 °F 30.0 °F 60% 30.16 in 10.0 mi SSE 10.4 mph - N/A   Clear
9:54 PM 43.0 °F 37.2 °F 30.0 °F 60% 30.15 in 10.0 mi SSE 10.4 mph - N/A   Clear
10:54 PM 43.0 °F 37.7 °F 28.9 °F 58% 30.14 in 10.0 mi SSE 9.2 mph - N/A   Mostly Cloudy
11:54 PM 44.1 °F 38.1 °F 28.0 °F 53% 30.11 in 10.0 mi South 11.5 mph - N/A   Mostly Cloudy